Lid_Strength_Index
-0 -0 -0 -0 -0 -0 -0 -1 -1 -1 -1 -1 -1 -1 -1 -1 -0 3 6 4 3 -1 1 6 7 7 7 8 9 11 14 16 14 13 12 11 11 11 11 10 11 10 10 9 6
-0 -0 -0 -0 -0 -0 -0 -0 -0 -0 -1 -1 -1 -1 -1 -1 3 6 1 -1 -1 -0 6 8 9 8 9 9 10 12 15 13 12 12 12 11 11 10 11 11 12 11 10 9 7
-0 -0 -0 -0 -0 -0 -0 -0 -0 -0 -0 -1 -1 -1 -1 1 6 7 -1 -2 -1 1 5 6 7 8 10 10 11 13 14 12 12 11 10 11 11 11 12 13 11 10 10 9 8
-0 -0 0 0 0 -0 -0 -0 -0 -0 -0 -0 -1 -1 -0 4 12 5 -1 -1 -1 4 6 7 9 10 11 12 10 12 11 12 10 10 10 11 11 12 11 11 10 10 9 10 9
-1 -0 0 0 0 0 -0 -0 -0 -0 -0 -0 -1 -1 4 9 8 4 -0 1 4 6 8 9 10 10 12 11 11 13 12 11 10 10 11 10 11 11 11 11 11 10 10 10 10
0 -0 -0 0 0 0 -0 -0 -0 -0 0 -0 -1 -0 6 12 4 4 4 5 6 7 8 8 9 9 11 11 12 11 11 11 10 10 11 11 12 11 11 11 11 10 11 11 10
0 0 0 -0 0 0 0 0 0 0 0 -0 -1 2 7 9 4 4 5 6 6 7 8 7 8 9 10 11 10 11 12 11 11 11 11 11 12 12 11 12 12 12 12 11 11
1 0 0 0 0 0 0 0 0 0 -0 -0 -1 4 10 5 4 5 6 7 6 6 7 7 7 8 10 10 11 13 13 15 12 11 11 11 14 11 11 12 12 12 13 12 12
2 2 1 0 0 0 0 0 0 0 -0 -0 4 7 10 3 5 4 6 7 7 7 7 6 8 10 11 13 14 14 16 15 13 11 12 13 14 12 13 13 13 13 13 13 12
1 1 2 1 0 0 0 -0 -0 1 1 1 3 10 8 8 6 5 6 6 8 8 9 9 11 13 14 14 17 16 16 15 15 13 13 14 14 12 13 13 13 13 13 13 12
1 0 1 2 2 1 1 3 6 7 6 9 9 11 8 7 5 6 6 7 8 9 12 12 13 14 12 13 13 14 15 15 14 12 13 14 14 12 13 14 14 13 13 13 12
1 1 0 1 1 1 3 5 6 6 9 6 6 6 6 6 8 7 6 9 10 12 12 13 15 11 11 12 13 14 15 15 14 13 13 14 14 13 13 13 12 12 12 12 12
1 1 1 1 1 2 4 5 3 4 10 8 6 6 6 7 9 8 7 9 11 12 12 13 12 11 11 13 13 14 15 15 14 14 14 15 16 15 13 12 12 11 10 11 11
2 1 1 1 3 2 4 2 3 5 13 11 9 7 8 7 10 7 7 9 11 12 12 13 11 11 13 13 12 15 13 13 14 15 17 15 19 16 15 13 13 12 12 11 12
2 2 1 1 3 4 3 2 2 4 20 9 9 6 8 9 10 9 8 9 12 11 11 13 12 12 13 12 11 13 12 13 15 16 18 19 19 17 16 15 14 12 12 12 12
2 2 2 1 2 3 2 2 3 13 19 12 9 10 10 10 11 10 9 9 10 11 12 13 11 11 11 11 11 12 13 14 16 17 20 17 17 17 16 14 14 12 12 12 13
1 2 3 2 4 1 1 4 13 18 10 13 12 11 11 12 12 11 12 12 13 15 15 14 13 12 11 13 12 13 14 19 20 21 20 18 19 15 14 13 13 12 12 13 15
2 2 3 3 1 0 3 9 17 13 13 10 12 12 13 11 13 14 14 14 12 13 16 16 17 13 12 11 13 14 15 18 23 22 21 18 20 16 14 13 13 13 13 15 16
2 5 3 2 2 2 7 15 15 13 11 11 11 13 15 13 13 14 15 15 13 13 15 16 16 14 13 13 11 15 16 14 17 25 23 19 17 14 14 14 13 13 15 16 15
5 6 6 1 1 3 9 13 12 10 9 9 14 12 15 13 14 15 16 13 13 12 12 14 17 15 14 12 13 14 13 17 19 24 26 20 19 17 15 14 14 13 15 15 15
5 9 5 1 1 6 13 12 10 8 8 10 12 13 13 13 12 14 13 13 12 13 11 13 15 17 15 15 15 16 16 17 16 19 22 24 17 15 14 13 13 13 13 14 15
5 11 4 0 9 8 11 10 8 9 7 9 9 10 12 11 12 12 13 11 11 11 14 12 14 19 17 15 15 15 15 15 18 20 19 19 16 14 14 14 13 13 13 15 15
8 8 5 2 12 11 11 9 8 9 9 9 10 9 9 11 13 12 12 10 10 11 12 11 14 18 17 16 16 16 15 13 15 17 17 20 17 15 15 14 14 14 14 15 15
9 11 9 5 6 10 11 11 11 8 8 8 9 9 10 12 10 12 12 10 10 10 9 9 13 16 17 16 15 17 16 15 14 17 17 16 14 13 14 14 14 13 14 15 15
9 10 10 13 11 9 9 10 11 11 8 8 10 10 11 13 12 13 11 11 10 9 9 10 15 14 13 13 15 16 16 15 15 14 16 14 14 12 11 14 13 12 14 15 15
10 10 9 10 9 11 9 11 11 10 10 11 11 9 10 12 11 13 11 11 11 11 10 10 15 14 15 13 14 15 15 15 14 14 13 13 13 10 12 12 13 12 12 14 15
6 7 7 10 11 11 11 10 10 9 8 8 9 10 11 10 8 7 8 8 9 10 11 12 13 15 17 14 14 17 14 13 14 13 13 15 12 10 11 12 11 11 13 13 13